WC4R Weather Reports


time (UTC)temp
C
wind
direction
speed
KPH
gust
KPH
rain 1hr
cm
rain 24hr
cm
rain mn
cm
humidity
%
barometer
mb
20260504022004 8 138 0.0 0.0 0.00 0.00 0.00 70 1016.1
20260504021003 9 138 0.0 0.0 0.00 0.00 0.00 70 1015.9
20260504020004 9 138 0.0 0.0 0.00 0.00 0.00 69 1015.9
20260504015004 9 137 0.0 0.0 0.00 0.00 0.00 68 1015.9
20260504014003 10 136 0.0 0.0 0.00 0.00 0.00 66 1015.9
20260504012004 10 136 0.0 0.0 0.00 0.00 0.00 62 1015.5
20260504011004 11 136 0.0 0.0 0.00 0.00 0.00 61 1015.5
20260504010004 11 4 0.0 0.0 0.00 0.00 0.00 59 1015.5
20260504005004 11 0 0.0 0.0 0.00 0.00 0.00 57 1015.5
20260504004004 12 0 0.0 0.0 0.00 0.00 0.00 54 1014.8
20260504003004 12 0 0.0 0.0 0.00 0.00 0.00 52 1014.8
20260504002004 13 0 0.0 0.0 0.00 0.00 0.00 50 1014.8
20260504001003 13 0 0.0 0.0 0.00 0.00 0.00 48 1014.8
20260504000003 13 0 0.0 0.0 0.00 0.00 0.00 46 1014.8
20260503235003 14 0 0.0 0.0 0.00 0.00 0.00 45 1014.8
20260503234003 14 0 0.0 0.0 0.00 0.00 0.00 45 1014.7
20260503233005 15 0 0.0 0.0 0.00 0.00 0.00 44 1014.7
20260503232003 15 0 0.0 0.0 0.00 0.00 0.00 47 1014.7
20260503231004 15 0 0.0 0.0 0.00 0.00 0.00 44 1014.7
20260503230004 15 0 0.0 0.0 0.00 0.00 0.00 42 1014.7
20260503225004 16 0 0.0 0.0 0.00 0.00 0.00 44 1014.7
20260503222004 16 0 0.0 0.0 0.00 0.00 0.00 44 1015.1
20260503221004 16 0 0.0 0.0 0.00 0.00 0.00 43 1015.1
20260503220005 16 0 0.0 1.6 0.00 0.00 0.00 45 1015.1
20260503213006 16 10 1.6 14.5 0.00 0.00 0.00 40 1014.9
20260503151004 15 356 0.0 9.7 0.00 0.00 0.00 45 1017.0
20260503131004 12 14 8.0 22.5 0.00 0.00 0.00 55 1016.9
20260503081003 10 3 0.0 4.8 0.00 0.00 0.00 75 1012.6
20260503071004 9 0 0.0 0.0 0.00 0.00 0.00 85 1012.2
20260503055004 8 22 0.0 0.0 0.00 0.00 0.00 88 1011.9
20260503053005 8 22 0.0 0.0 0.00 0.00 0.00 88 1011.9
20260503052005 8 22 0.0 0.0 0.00 0.00 0.00 88 1011.9
20260503051003 8 22 0.0 0.0 0.00 0.00 0.00 88 1011.9
20260503050005 8 22 0.0 0.0 0.00 0.00 0.00 88 1011.9
20260503045004 8 22 0.0 0.0 0.00 0.00 0.00 87 1011.9
20260503044004 8 22 0.0 0.0 0.00 0.00 0.00 87 1011.9
20260503043005 8 22 0.0 0.0 0.00 0.00 0.00 86 1012.1
20260503042004 8 22 0.0 0.0 0.00 0.00 0.00 85 1012.0
20260503041004 8 22 0.0 0.0 0.00 0.00 0.00 84 1012.0
20260503040004 9 22 0.0 0.0 0.00 0.00 0.00 84 1012.0
20260503035004 9 22 0.0 0.0 0.00 0.00 0.00 83 1011.8
20260503034003 9 22 0.0 0.0 0.00 0.00 0.00 83 1011.8
20260503032004 10 21 0.0 0.0 0.00 0.00 0.00 82 1011.8
20260503031003 10 19 0.0 0.0 0.00 0.00 0.00 82 1011.8
20260503030004 10 19 0.0 0.0 0.00 0.00 0.00 80 1010.4
20260503024004 10 19 0.0 0.0 0.00 0.00 0.00 79 1010.4